GSAT0203 (GALILEO 7)    
1 40544U 15017A   19266.25002299 -.00000029  00000-0  00000-0 0  9996
2 40544  56.2433  48.8466 0003158 218.5992 141.3870  1.70474996 27281
GSAT0204 (GALILEO 8)    
1 40545U 15017B   19266.61835805 -.00000030  00000-0  00000+0 0  9995
2 40545  56.2500  48.8511 0003018 170.5255 189.4882  1.70475295 27955
FREGAT R/B              
1 40546U 15017C   19265.61215771 -.00000026  00000-0  00000-0 0  9995
2 40546  56.2709  50.4519 0016344 189.0081 170.9730  1.67684654 27507